EW1979 Weather Reports


time (UTC)temp
C
wind
direction
speed
KPH
gust
KPH
rain 1hr
cm
rain 24hr
cm
rain mn
cm
humidity
%
barometer
mb
20260509021503 20 148 0.0 0.0 0.00 0.00 0.00 63 1007.2
20260509014603 20 148 0.0 0.0 0.00 0.00 0.00 72 1006.5
20260509013018 21 148 0.0 0.0 0.00 0.00 0.00 75 1006.2
20260509010133 22 148 0.0 0.0 0.00 0.00 0.00 78 1005.8
20260509004506 22 148 0.0 0.0 0.00 0.00 0.00 77 1005.8
20260509003103 22 148 0.0 0.0 0.00 0.00 0.00 77 1005.8
20260509001509 22 148 0.0 0.0 0.00 0.00 0.00 77 1005.8
20260508234602 22 147 0.0 0.0 0.00 0.00 0.00 77 1006.0
20260508233105 22 147 0.0 0.0 0.00 0.00 0.00 77 1006.0
20260508230017 23 138 0.0 0.0 0.00 0.00 0.00 76 1006.0
20260508224515 22 138 0.0 0.0 0.00 0.00 0.00 77 1006.0
20260508223022 22 138 0.0 0.0 0.00 0.00 0.00 77 1006.1
20260508220106 22 135 0.0 0.0 0.00 0.00 0.00 76 1006.2
20260508213002 22 134 0.0 0.0 0.00 0.00 0.00 77 1006.4
20260508211504 22 133 0.0 0.0 0.00 0.00 0.00 76 1006.6
20260508204603 23 118 0.0 0.0 0.00 0.00 0.00 76 1006.8
20260508194602 23 141 0.0 0.0 0.00 0.00 0.00 75 1007.0
20260508190012 23 122 0.0 0.0 0.00 0.00 0.00 75 1007.3
20260508184635 22 122 0.0 0.0 0.00 0.00 0.00 73 1007.5
20260508183118 22 122 0.0 0.0 0.00 0.00 0.00 72 1007.7
20260508181518 22 122 0.0 0.0 0.00 0.00 0.00 71 1008.1
20260508180106 22 119 0.0 0.0 0.00 0.00 0.00 69 1008.5
20260508174618 21 105 0.0 0.0 0.00 0.00 0.00 67 1008.7
20260508173003 21 86 0.0 0.0 0.00 0.00 0.00 57 1009.0
20260508171507 20 64 0.0 0.0 0.00 0.00 0.00 44 1009.2
20260508170104 20 16 0.0 0.0 0.00 0.00 0.00 18 1009.8
20260508164606 18 13 0.0 0.0 0.00 0.00 0.00 8 1010.0
20260508161604 17 11 0.0 0.0 0.00 0.00 0.00 12 1010.5
20260508160003 17 12 0.0 0.0 0.00 0.00 0.00 19 1010.9
20260508154504 16 11 0.0 0.0 0.00 0.00 0.00 20 1011.3
20260508153104 16 12 0.0 0.0 0.00 0.00 0.00 19 1011.5
20260508151603 16 19 0.0 0.0 0.00 0.00 0.00 20 1011.5
20260508150009 16 19 0.0 0.0 0.00 0.00 0.00 23 1011.4
20260508143002 15 19 0.0 0.0 0.00 0.00 0.00 32 1011.5
20260508141509 15 17 0.0 0.0 0.00 0.00 0.00 36 1011.7
20260508140007 15 17 0.0 0.0 0.00 0.00 0.00 40 1011.8
20260508134633 15 17 0.0 0.0 0.00 0.00 0.00 40 1011.5
20260508133113 15 17 0.0 0.0 0.00 0.00 0.00 39 1011.4
20260508131505 15 17 0.0 0.0 0.00 0.00 0.00 42 1011.5
20260508130002 15 17 0.0 0.0 0.00 0.00 0.00 42 1011.2
20260508124504 15 17 0.0 0.0 0.00 0.00 0.00 44 1011.0
20260508123010 15 17 0.0 0.0 0.00 0.00 0.00 46 1011.1
20260508121603 14 17 0.0 0.0 0.00 0.00 0.00 48 1011.5
20260508113002 15 17 0.0 0.0 0.00 0.00 0.00 61 1011.5
20260508111504 15 17 0.0 0.0 0.00 0.00 0.00 64 1011.7
20260508104603 15 17 0.0 0.0 0.00 0.00 0.00 69 1011.4
20260508103102 15 17 0.0 0.0 0.00 0.00 0.00 72 1011.1
20260508101503 15 17 0.0 0.0 0.00 0.00 0.00 75 1011.3
20260508100006 15 17 0.0 0.0 0.00 0.00 0.00 75 1011.1
20260508094615 15 17 0.0 0.0 0.00 0.00 0.00 75 1011.1
20260508093102 15 17 0.0 0.0 0.00 0.00 0.00 74 1011.0
20260508091632 15 17 0.0 0.0 0.00 0.00 0.00 75 1010.9
20260508090013 15 17 0.0 0.0 0.00 0.00 0.00 76 1011.3
20260508084508 15 15 0.0 0.0 0.00 0.00 0.00 77 1010.9
20260508083102 15 15 0.0 0.0 0.00 0.00 0.00 79 1011.1
20260508081508 15 15 0.0 0.0 0.00 0.00 0.00 80 1011.2
20260508080007 15 15 0.0 0.0 0.00 0.00 0.00 81 1011.5
20260508074601 15 15 0.0 0.0 0.00 0.00 0.00 81 1011.8
20260508073008 15 15 0.0 0.0 0.00 0.00 0.00 80 1011.8
20260508071603 15 15 0.0 0.0 0.00 0.00 0.00 81 1012.0
20260508064603 15 15 0.0 0.0 0.00 0.00 0.00 80 1012.5
20260508060105 15 14 0.0 0.0 0.00 0.00 0.00 80 1011.5
20260508054503 16 11 0.0 0.0 0.00 0.00 0.00 80 1011.8
20260508053104 16 11 0.0 0.0 0.00 0.00 0.00 80 1013.1
20260508051504 16 11 0.0 0.0 0.00 0.00 0.00 80 1012.9
20260508050003 16 11 0.0 0.0 0.00 0.00 0.00 79 1012.5
20260508044607 16 11 0.0 0.0 0.00 0.00 0.00 79 1012.7
20260508043004 16 12 0.0 0.0 0.00 0.00 0.00 78 1013.1
20260508041508 16 13 0.0 0.0 0.00 0.00 0.00 77 1013.4
20260508034603 16 69 0.0 0.0 0.00 0.00 0.00 77 1011.2
20260508031504 16 53 0.0 0.0 0.00 0.00 0.00 79 1012.2
20260508030011 16 51 0.0 0.0 0.00 0.00 0.00 79 1013.0
20260508024604 16 51 0.0 0.0 0.00 0.00 0.00 78 1013.0
20260508023106 16 52 0.0 0.0 0.00 0.00 0.00 78 1013.4